TimeEDT,TemperatureF,Dew PointF,Humidity,Sea Level PressureIn,VisibilityMPH,Wind Direction,Wind SpeedMPH,Gust SpeedMPH,PrecipitationIn,Events,Conditions,WindDirDegrees,DateUTC
12:54 AM,45.0,41.0,86,30.18,10.0,Calm,Calm,-,N/A,,Clear,0,2012-10-22 04:54:00
1:54 AM,44.1,39.9,85,30.18,10.0,Calm,Calm,-,N/A,,Clear,0,2012-10-22 05:54:00
2:54 AM,41.0,39.0,93,30.19,10.0,Calm,Calm,-,N/A,,Clear,0,2012-10-22 06:54:00
3:54 AM,42.1,39.9,92,30.19,10.0,Calm,Calm,-,N/A,,Clear,0,2012-10-22 07:54:00
4:54 AM,41.0,39.0,93,30.19,10.0,NW,3.5,-,N/A,,Clear,320,2012-10-22 08:54:00
5:54 AM,41.0,37.9,89,30.21,10.0,Calm,Calm,-,N/A,,Clear,0,2012-10-22 09:54:00
6:54 AM,39.9,39.0,97,30.24,10.0,Calm,Calm,-,N/A,,Clear,0,2012-10-22 10:54:00
7:54 AM,39.2,37.4,93,30.27,10.0,Calm,Calm,-,N/A,,Clear,0,2012-10-22 11:54:00
8:54 AM,46.0,41.0,83,30.27,10.0,Calm,Calm,-,N/A,,Clear,0,2012-10-22 12:54:00
9:54 AM,52.0,44.1,74,30.27,10.0,NNW,3.5,-,N/A,,Clear,340,2012-10-22 13:54:00
10:54 AM,57.0,45.0,64,30.26,10.0,Calm,Calm,-,N/A,,Clear,0,2012-10-22 14:54:00
11:54 AM,64.0,46.9,54,30.24,10.0,Calm,Calm,-,N/A,,Clear,0,2012-10-22 15:54:00
12:54 PM,71.1,45.0,39,30.22,10.0,Calm,Calm,-,N/A,,Clear,0,2012-10-22 16:54:00
1:54 PM,72.0,45.0,38,30.19,10.0,South,4.6,-,N/A,,Clear,170,2012-10-22 17:54:00
2:54 PM,73.0,44.1,35,30.16,10.0,SE,5.8,-,N/A,,Clear,140,2012-10-22 18:54:00
3:54 PM,73.9,46.9,38,30.15,10.0,SSE,8.1,-,N/A,,Clear,160,2012-10-22 19:54:00
4:54 PM,73.0,46.9,39,30.14,10.0,SSE,9.2,-,N/A,,Clear,150,2012-10-22 20:54:00
5:54 PM,72.0,46.9,41,30.15,10.0,SSE,6.9,-,N/A,,Clear,160,2012-10-22 21:54:00
6:54 PM,66.9,48.0,51,30.17,10.0,SSE,3.5,-,N/A,,Clear,150,2012-10-22 22:54:00
7:54 PM,63.0,48.9,60,30.19,10.0,Calm,Calm,-,N/A,,Clear,0,2012-10-22 23:54:00
8:54 PM,59.0,50.0,72,30.21,10.0,Calm,Calm,-,N/A,,Clear,0,2012-10-23 00:54:00
9:54 PM,55.0,50.0,83,30.21,10.0,Calm,Calm,-,N/A,,Clear,0,2012-10-23 01:54:00
10:54 PM,53.1,48.9,86,30.22,10.0,Calm,Calm,-,N/A,,Clear,0,2012-10-23 02:54:00
11:54 PM,51.1,48.0,89,30.20,10.0,Calm,Calm,-,N/A,,Clear,0,2012-10-23 03:54:00